Regional Weather Roundup
Issued by NWS

Home | Current Version | Previous Version | Graphics & Text | Print | Product List | Glossary On
Versions: 1 2 3 4 5 6 7 8 9 10 11 12 13 14 15 16 17 18 19 20 21 22 23 24 25 26 27 28 29 30 31 32 33 34 35 36 37 38 39 40 41 42 43 44 45 46 47 48 49 50
000
ASUS43 KDMX 260807
RWRIA

WEATHER ROUNDUP FOR IOWA
NATIONAL WEATHER SERVICE DES MOINES IA
200 AM CST FRI DEC 26 2014

NOTE: "FAIR" INDICATES FEW OR NO CLOUDS BELOW 12,000 FEET WITH NO
SIGNIFICANT WEATHER AND/OR OBSTRUCTIONS TO VISIBILITY.

* - THESE STATIONS ARE NOT NWS STATIONS...THUS NOT UNDER NWS
QUALITY CONTROL.  THEY ALSO DO NOT REPORT WEATHER SUCH
AS PRECIPITATION OR FOG.

IAZ001>003-012>014-020>022-031>034-043>046-260900-
   NORTHWEST IOWA

CITY           SKY/WX    TMP DP  RH WIND       PRES   REMARKS
CARROLL *      PTCLDY    28  27  93 NW6       29.77R WCI  22
CHEROKEE *     CLOUDY    32  32 100 N10G18    29.81R WCI  24
DENISON *      CLEAR     27  27 100 CALM      29.76R
LE MARS *      CLOUDY    34  32  93 N9G17     29.85R WCI  26
ORANGE CITY *  CLOUDY    34  30  86 N8G17     29.83R FOG     WCI  27
SHELDON *      CLOUDY    32  32 100 N14       29.82R FOG     WCI  22
SIOUX CITY     CLOUDY    35  31  85 N17       29.84R WCI  25
SPENCER        CLOUDY    33  30  88 N14       29.81R WCI  23
STORM LAKE *   MOCLDY    30  30 100 N13       29.78S WCI  20
$$

IAZ055>058-069>071-079>083-090>094-260900-
   SOUTHWEST IOWA

CITY           SKY/WX    TMP DP  RH WIND       PRES   REMARKS
ATLANTIC *     PTCLDY    36  32  87 SW5       29.76R WCI  32
AUDUBON *      CLEAR     27  21  80 CALM      29.76R
CLARINDA *     CLEAR     36  30  80 S5        29.79R WCI  32
COUNCIL BLFS * PTCLDY    30  30 100 NW12      29.76R WCI  21
CRESTON *      CLEAR     37  32  81 S10       29.78R WCI  30
HARLAN  *      CLEAR     28  28 100 CALM      29.80R
LAMONI         CLEAR     38  30  73 S10       29.80R WCI  31
RED OAK *      CLEAR     34  30  86 S5        29.76R WCI  30
SHENANDOAH *   CLEAR     39  32  75 CALM      29.77R
$$

IAZ047>049-059>061-072>074-084-260900-
   CENTRAL IOWA

CITY           SKY/WX    TMP DP  RH WIND       PRES   REMARKS
AMES           PTCLDY    33  28  81 SE5       29.78R WCI  29
ANKENY *       CLEAR     37  32  81 S6        29.79R WCI  33
CHARITON *     PTCLDY    39  32  75 S12       29.81R WCI  32
DES MOINES     PTCLDY    38  30  73 S9        29.79R WCI  31
GRINNELL*      MOCLDY    37  32  81 S12       29.82R WCI  30
KNOXVILLE *    CLEAR     39  30  70 S10       29.80R WCI  32
MARSHALLTOWN   MOCLDY    36  30  79 SE10      29.79R WCI  28
PELLA *        PTCLDY    39  32  75 S10       29.84R WCI  32
PERRY *          N/A     32  32 100 S5        29.77R WCI  27
$$

IAZ004>006-015-016-023>025-035-036-260900-
   NORTH CENTRAL IOWA

CITY           SKY/WX    TMP DP  RH WIND       PRES   REMARKS
ALGONA *       CLEAR     28  28 100 N6        29.79R FOG     WCI  22
CLARION *      CLEAR     32  32 100 SE7       29.78R WCI  26
ESTHERVILLE    CLOUDY    31  30  96 N13       29.80R FOG     WCI  21
FORT DODGE *   CLEAR     28  25  86 CALM      29.78R
MASON CITY     CLEAR     30  28  92 S7        29.79S WCI  23
FOREST CITY *  CLEAR     30  28  93 CALM      29.79R
IOWA FALLS *     N/A     34  30  86 SE7       29.79R WCI  28
$$

IAZ007>011-017>019-026>030-037>042-050>054-066-260900-
   NORTHEAST IOWA

CITY           SKY/WX    TMP DP  RH WIND       PRES   REMARKS
CEDAR RAPIDS   MOCLDY    41  32  70 S15       29.84S
CHARLES CITY * CLEAR     34  32  93 SE8       29.81R WCI  27
CLINTON *      CLOUDY    41  34  75 S13       29.92F
DECORAH *      CLEAR     37  32  81 S10G17    29.81S WCI  30
DUBUQUE        MOCLDY    38  33  82 S13       29.87S WCI  30
MONTICELLO *   CLEAR     39  36  87 S8        29.86R WCI  34
OELWEIN *      PTCLDY    34  32  93 SE9       29.83R WCI  26
WATERLOO       PTCLDY    37  31  78 S12       29.81R WCI  29
$$

IAZ064-065-067-068-078-260900-
   EAST CENTRAL IOWA

CITY           SKY/WX    TMP DP  RH WIND       PRES   REMARKS
DAVENPORT      CLOUDY    42  32  67 S20G28    29.90S
IOWA CITY      CLOUDY    42  33  70 S15       29.88S
MT. PLEASANT * MOCLDY    39  32  75 S13       29.90S WCI  32
MUSCATINE *    CLEAR     41  34  75 S13       29.90S
QUAD CITIES    CLOUDY    43  33  68 S15G26    29.90S
$$

IAZ062-063-075>077-085>089-095>099-260900-
   SOUTHEAST IOWA

CITY           SKY/WX    TMP DP  RH WIND       PRES   REMARKS
BURLINGTON     MOCLDY    40  34  79 S16       29.92S WCI  31
FAIRFIELD *    PTCLDY    41  32  70 S13       29.87S
FORT MADISON * CLEAR     39  36  87 S10       29.93R WCI  32
KEOKUK *       CLEAR     41  34  75 S10G16    29.91S
OSKALOOSA *      N/A     39  32  75 S14       29.85R WCI  31
CENTERVILLE *  CLEAR     41  32  70 S13       29.85R
OTTUMWA        MOCLDY    41  31  67 S15       29.85R
WASHINGTON *   CLEAR     41  36  81 S14       29.87S
$$

ABBREVIATIONS USED IN REMARKS
   TC - TEMPERATURES IN CELSIUS
  WCI - WIND CHILL INDEX
   HX - HEAT INDEX
  VSB - VISIBILITY
$$




USA.gov is the U.S. government's official web portal to all federal, state and local government web resources and services.